www.pogodaiklimat.ru

Погода и климат >> Архив погоды >> Китай >> Гуандун >> Лиянпин


ПОГОДА в Лиянпине

  • Прогноз погоды в Лиянпине
  • Монитор погоды в Лиянпине

АРХИВ ПОГОДЫ в Лиянпине

Время (UTC), дата Ветер
(напр.,м/с)
 
Видим.   Явления Облачность Т
(С)
Тd
(С)
f
(%)
Тe
(С)
Тes
(С)
Комфортность P
(гПа)
Po
(гПа)
Тmin
(С)
Tmax
(С)
R
(мм)
R24
(мм)
S
(см)
00 15.09 В 1 19 км ?/? +24.2 +23.6 96 +33 +33 очень
душно
1011.4 986.8 0.7
03 15.09 Ю 1 30 км н/о +29.8 +23.0 67 +40 +40 очень
душно
1010.3 986.2
06 15.09 Ю 1 30 км ?/? +33.5 +21.9 51 +42 +42 опасность
перегрева
1007.1 983.4 +22.0 0.1
09 15.09 ЮЗ 2 30 км н/о +33.0 +22.7 55 +43 +43 опасность
перегрева
1006.1 982.4
12 15.09 СВ 2 30 км 5/5 1000 м
[]
+27.2 +24.6 86 +39 +39 очень
душно
1007.7 983.5
15 15.09 С 1 18 км н/о +25.4 +24.7 96 +36 +36 очень
душно
1008.8 984.4
18 15.09 С 2 14 км ?/? +24.7 +24.3 98 +34 +34 очень
душно
1007.8 983.4 +34.7
21 15.09 Ю 1 12 км слаб. дождь н/о +24.6 +24.4 99 +34 +34 очень
душно
1008.4 983.9
00 16.09 В 1 13 км ?/? +25.8 +25.4 98 +38 +38 очень
душно
1010.1 985.7 0.3
03 16.09 С 3 19 км н/о +31.0 +23.6 65 +42 +42 опасность
перегрева
1009.2 985.2
06 16.09 С 3 25 км ?/? +32.4 +23.9 61 +44 +44 опасность
перегрева
1006.5 982.7 +24.3
09 16.09 С 3 22 км н/о +31.6 +23.6 63 +43 +43 опасность
перегрева
1005.9 982.0
12 16.09 С 1 12 км 5/5 1000 м
[]
+26.4 +24.6 90 +37 +37 очень
душно
1007.7 983.4
15 16.09 СВ 1 н/о дымка н/о +24.6 +24.4 99 +34 +34 очень
душно
1008.7 984.2
18 16.09 С 1 2100 м дымка ?/? +23.6 +23.5 99 +32 +32 очень
душно
1008.5 983.9 +33.0
21 16.09 С 1 2700 м дымка н/о +23.0 +22.9 99 +32 +32 очень
душно
1009.3 984.7
00 17.09 С 1 6000 м в посл. час туман 3/3 1000 м
[]
+24.9 +24.5 98 +35 +37 очень
душно
1011.4 986.9
03 17.09 С 6 22 км 6/6 1000 м
[]
+30.3 +21.9 61 +39 +41 очень
душно
1011.1 987.0
06 17.09 С 7 29 км 3/3 1000 м
[]
+31.5 +21.3 55 +39 +42 очень
душно
1008.6 984.7 +22.7
09 17.09 С 6 30 км 6/6 1000 м
[]
+31.5 +21.3 55 +39 +40 очень
душно
1008.2 984.3
12 17.09 С 2 13 км 8/8 1000 м
[]
+26.8 +22.8 79 +36 +36 очень
душно
1010.4 986.1
15 17.09 С 2 24 км н/о +27.2 +21.4 71 +35 +35 очень
душно
1011.3 987.0
18 17.09 С 3 30 км ?/? +26.8 +19.9 66 +33 +33 очень
душно
1010.7 986.4 +32.7
21 17.09 СВ 3 30 км н/о +25.2 +19.7 72 +31 +31 очень
душно
1011.6 987.1
00 18.09 С 4 30 км 1/1 1000 м
[]
+26.2 +20.5 71 +33 +34 очень
душно
1014.0 989.5
03 18.09 С 6 30 км 3/3 1000 м
[]
+29.6 +19.3 54 +35 +40 очень
душно
1013.1 988.9
06 18.09 С 8 30 км 4/4 1000 м
[]
+31.7 +20.0 50 +38 +40 очень
душно
1010.1 986.2 +24.5
09 18.09 С 8 30 км 6/6 1000 м
[]
+31.0 +19.3 50 +37 +37 очень
душно
1010.5 986.5
12 18.09 С 2 30 км ?/? +27.6 +19.1 60 +33 +33 очень
душно
1012.7 988.4
15 18.09 С 7 27 км н/о +26.2 +18.0 61 +31 +31 очень
душно
1013.9 989.4
18 18.09 С 2 30 км ?/? +24.5 +17.4 65 +29 +29 душно 1013.4 988.8 +31.8
21 18.09 С 3 29 км н/о +23.5 +16.5 65 +27 +27 душно 1013.6 988.9
00 19.09 С 4 30 км ?/? +24.5 +16.2 60 +28 +28 душно 1015.1 990.5
03 19.09 С 6 30 км ясно +27.4 +14.7 46 +30 +36 жарко 1014.0 989.6
06 19.09 С 5 30 км ясно +30.0 +14.5 39 +32 +40 жарко 1011.3 987.2 +22.3
09 19.09 С 4 30 км ясно +29.7 +11.7 33 +30 +32 жарко 1010.6 986.5
12 19.09 С 2 30 км ясно +22.8 +14.3 59 +26 +26 жарко 1012.5 987.8
15 19.09 С 2 30 км н/о +20.5 +15.5 73 +24 +24 комфорт 1012.6 987.7
18 19.09 З 1 30 км ?/? +20.5 +13.2 63 +24 +24 комфорт 1011.5 979.1 +30.9
21 19.09 С 2 30 км н/о +17.8 +15.4 86 +18 +18 1011.6 986.5
00 20.09 ЮВ 1 30 км ?/? +21.9 +15.0 65 +25 +25 комфорт 1013.0 988.2
03 20.09 С 8 30 км ясно +26.8 +12.0 40 +28 +31 жарко 1012.0 987.6
06 20.09 С 7 30 км ясно +30.1 +12.0 33 +31 +35 жарко 1009.1 985.1 +17.6
09 20.09 С 4 30 км ясно +29.5 +10.1 30 +30 +31 жарко 1008.7 984.6
12 20.09 С 3 30 км ясно +26.6 +9.9 35 +27 +27 жарко 1009.2 984.9
15 20.09 В 2 30 км н/о +25.1 +8.9 36 +26 +26 жарко 1009.9 985.4
18 20.09 С 4 30 км ?/? +23.9 +11.2 45 +25 +25 комфорт 1009.1 984.6 +30.2
21 20.09 С 2 30 км н/о +22.8 +10.9 47 +25 +25 комфорт 1009.4 984.8
00 21.09 С 10 30 км ?/? +24.0 +11.3 45 +25 +25 комфорт 1011.2 986.6
03 21.09 С 12 30 км ясно +26.9 +11.3 38 +28 +28 жарко 1010.1 985.8
06 21.09 С 10
{21}
30 км ?/? +28.2 +11.7 36 +29 +29 жарко 1008.1 975.9 +22.6
09 21.09 С 8 30 км ясно +28.3 +11.3 35 +29 +29 жарко 1008.3 984.1
12 21.09 С 2 30 км ясно +24.3 +11.2 44 +26 +26 жарко 1011.0 986.4
15 21.09 С 3 30 км н/о +22.8 +10.2 45 +25 +25 комфорт 1012.2 987.5
18 21.09 В 2 30 км ?/? +21.1 +10.5 51 +23 +23 комфорт 1012.8 987.9 +28.9
21 21.09 С 6 30 км н/о +20.8 +9.4 48 +22 +22 комфорт 1013.3 988.4

 

Местоположение метеостанции Лиянпин (Гуандун, Китай): широта 24.37 долгота 114.48 высота над уровнем моря 214 м.

В архиве по умолчанию представлена погода в Лиянпине за последнюю неделю. Архивные данные за месяц целиком и за предыдущие месяцы, начиная с января 2011 года, Вы можете получить, выбрав интересующий диапазон дат из раскрывающегося списка и нажав кнопку "Ввод!".


*Определитесь, кто Вы:
робот инопланетянин человек

Внимание! Время в таблицах - всемирное. Для получения местного времени необходимо прибавить поправку, которая равна 8 ч.

Смотрите также архив погоды в соседних городах и на ближайших метеорологических станциях:

Погода в Хэюане (Гуандун, Китай) (68 км)
Погода в Шаогуане (Гуандун, Китай) (103 км)
Погода в Фоанге (Гуандун, Китай) (111 км)
Погода в Сюньву (Цзяньси, Китай) (135 км)
Погода в Мэйсяне (Гуандун, Китай) (165 км)
Погода в Ганьчжоу (Цзяньси, Китай) (175 км)
Погода в Гуанчжоу (Гуандун, Китай) (178 км)
Погода в Шаньвэе (Гуандун, Китай) (198 км)
Погода в Шэньчжэне (Гуандун, Китай) (206 км)
Погода Ta Kwu Ling (Гонконг) (207 км)

Пояснения к столбцам:

Ветер - указаны скорость ветра в м/с - средняя за 10 мин, порывы в срок и между сроками (в фигурных скобках) и направление, откуда дует ветер: С - северный, СВ - северо-восточный, В - восточный, ЮВ - юго-восточный, Ю - южный, ЮЗ - юго-западный, З - западный, СЗ - северо-западный.
Видимость - горизонтальная дальность видимости в метрах или километрах. При видимости от 1 до 10 км при отсутствии осадков обычно наблюдается дымка, при ухудшении видимости до 1 км и менее - туман. В сухую погоду видимость может ухудшаться дымом, пылью или мглою.
Явления - указаны атмосферные явления, наблюдавшиеся в срок или в последний час перед сроком; фигурными скобками обозначены явления, наблюдавшиеся между сроками (за 1-3 часа до срока); квадратными скобками обозначены град или гололедные отложения с указанием их диаметра в мм.
Облачность - указаны через наклонную черту общая и нижняя облачность в баллах и высота нижней границы облаков в метрах; квадратными скобками обозначены формы облаков: Ci - перистые, Cs - перисто-слоистые, Cc - перисто-кучевые, Ac - высококучевые, As - высокослоистые, Sc - слоисто-кучевые, Ns - слоисто-дождевые, Cu - кучевые, Cb - кучево-дождевые. Подробнее классификацию облаков см. в Атласе облаков (PDF).
T - Температура воздуха - температура, измеренная на высоте 2 м над землей.
Td - Температура точки росы - температура, при понижении до которой содержащийся в воздухе водяной пар достигнет насыщения.
f - Относительная влажность воздуха - влажноcть воздуха, измеренная на высоте 2 м над землей.
Te - Эффективная температура - температура, которую ощущает одетый по сезону человек в тени. Характеристика душности погоды. При расчете учитывается влияние влажности воздуха и скорости ветра на теплоощущения человека.
Tes - Эффективная температура на солнце - температура, которую ощущает человек, с поправкой на солнечный нагрев. Характеристика знойности погоды. Зависит от высоты солнца над горизонтом, облачности и скорости ветра. Ночью, в пасмурную погоду, а также при ветре 12 м/с и более поправка равна нулю.
P - Атмосферное давление - приведенное к уровню моря атмосферное давление.
Po - Атмосферное давление - измеренное на уровне метеостанции атмосферное давление.
Tmin - Минимальная температура - минимум температуры воздуха на высоте 2 м над землей.
Tmax - Максимальная температура - максимум температуры воздуха на высоте 2 м над землей.
R - Количество осадков - Количество выпавших осадков за период времени, мм. При наведении курсора мыши на число - период времени, за который выпало указанное количество осадков.
R24 - Количество осадков - Количество выпавших осадков за 24 часа, мм.
S - Снежный покров - Высота снежного покрова, см. При наведении курсора мыши на число - состояние снежного покрова и степень покрытия местности в баллах.